Location: Unspecified
(0.0000°N, 0.0000°E)
Time: 13:37:25
(UTC+00:00)

Envisat - Pass Details

Date: 22 April 2018
Orbit: 764 x 766 km, 98.2° (Epoch: 16 November)

Event Time Altitude Azimuth Distance (km) Brightness Sun altitude
Exits shadow 20:02:56 49° 332° (NNW) 975 3.6 -30.3°
Drops below altitude 10° 20:06:37 10° 344° (NNW) 2,290 5.8 -31.2°
Sets 20:08:55 0° 345° (NNW) 3,213 6.6 -31.8°
